sat.trackr.live / text

‹ back to catalog

STARLINK-34218

NORAD 64338 · 2025-124X

PAYLOAD ACTIVE UNKNOWN

§ Identity

Operator
Country
US
Launch date
2025-06-10
Launch site
AFETR
Launch vehicle
Mass (kg)
RCS (m²)

Purposes: comms

External: N2YO · Heavens-Above · Gunter

§ Orbital elements

Epoch: 2026-09-20T22:37:26.287968Z

Period
94.27 min
Inclination
43.0001°
Eccentricity
0.0001304
Mean motion
15.27605619 rev/d
Perigee alt
482.1 km
Apogee alt
483.9 km
Semi-major
6,861.1 km
B*
5.1751e-4
RAAN
95.4040°
Arg perigee
276.2631°
Mean anomaly
83.8072°
Rev number
7,168

§ Raw data

STARLINK-342181 64338U 25124X   26263.94266537  .00014017  00000+0  51751-3 0  99932 64338  43.0001  95.4040 0001304 276.2631  83.8072 15.27605619 71683

JSON: /api/v1/satellites/64338 · /tle

For live sub-satellite position, see the globe view (requires WebGL).

§ Visibility from observer

Set your observer location to see the next 7 days of passes ≥ 10°. The values pass through the URL so the page stays shareable.

No JS? Fill the form by hand. The geolocation button needs JavaScript.